Weather in Bergen

Norway     60°23′01″N   5°20′00″E
temp.,
°C
wind,
m/s
gust,
m/s
humid.,
%
clouds,
%
prec.,
mm/h
press.,
hPa
HPBL,
m
21 april, wed
wed2123:00+5w367599 1.4 1012831
02:00+4nw3574100 3.3 1011757
05:00+3nnw71184100 0.8 10111088
08:00+3nnw141880100 2.1 10131543
11:00+4nnw11146186 0.8 10141764
14:00+5nnw911635 0.9 10141497
17:00+6nnw1114635 0.0 10141388
20:00+5nnw1116630 0.0 10151482
22 april, thu
thu2223:00+4nnw1013655 0.0 10171296
02:00+4n912595 0.0 10191484
05:00+4n8126233 0.0 10191369
08:00+4nnw7106699 0.0 10191325
11:00+5nnw811565 0.3 10201459
14:00+5nnw1013565 0.3 10211531
17:00+5nnw1014575 0.0 10221481
20:00+4nnw1013617 0.0 10231437
23 april, fri
fri2323:00+4nnw811615 0.0 10241228
02:00+4n710635 0.0 10251084
05:00+4n59675 0.0 1026889
08:00+4n59637 0.0 10261173
11:00+5nnw785729 0.0 10271312
14:00+5nw785810 0.0 1027989
17:00+5nnw775557 0.0 1027867
20:00+5nnw68605 0.0 1027627
24 april, sat
sat2423:00+4nnw46670 0.0 1028403
02:00+3n36714 0.0 1028372
05:00+3nne34735 0.0 1029324
08:00+3nne23683 0.0 1029308
11:00+5nnw23540 0.0 1030550
14:00+7nw44470 0.0 1030641
17:00+7nw45510 0.0 1030472
20:00+7nw46595 0.0 1030271
25 april, sun
sun2523:00+5ne22595 0.0 103085
02:00+4e12595 0.0 103091
05:00+3ene115846 0.0 103085
08:00+4ne1153100 0.0 1029136
11:00+5nw2149100 0.0 1030350
14:00+6wnw3251100 0.0 1029407
17:00+7nw34545 0.0 1029439
20:00+6nw3456100 0.0 1028313